Content
SEND FEEDBACK

Daily
Averages
Monthly
Summary
United States of America

CRESTED BUTTE, COLORADO


Home > North America > United States > Colorado
Elevation: 9277 feet     Latitude: 38 52N     Longitude: 106 58W

WEATHER
 
SELECT A DAY
Number of Records: 447,606;   Date Range: 1/1/95 - 7/29/14
 
SHARE

PRINT THIS DATA

[ ← Previous Day ]
WEATHER ALMANAC - OCTOBER 8, 2013
[ Next Day → ]
[ °C ]   °F
We're sorry. There is no daily almanac available for Crested Butte, Colorado on October 8, 2013.
WEATHER BY HOUR - OCTOBER 8, 2013
[ °C ]   °F
Local TimeTemperatureDewpointHumidityBarometerVisibilityWind DirectionWind SpeedGust SpeedPrecipitationEventsConditions
12:35 AM39.2 °F23.0 °F52 %30.24 in10.0 miNNE (30°)4.6 mphClear
12:55 AM35.6 °F21.2 °F56 %30.24 in10.0 miENE (70°)3.5 mphClear
1:15 AM33.8 °F21.2 °F60 %30.24 in10.0 miCalmClear
1:35 AM35.6 °F24.8 °F65 %30.24 in10.0 miCalmClear
1:55 AM35.6 °F24.8 °F65 %30.24 in10.0 miCalmClear
2:15 AM33.8 °F24.8 °F70 %30.24 in10.0 miCalmClear
2:35 AM35.6 °F24.8 °F65 %30.24 in10.0 miCalmClear
2:55 AM35.6 °F24.8 °F65 %30.23 in10.0 miCalmClear
3:15 AM33.8 °F24.8 °F70 %30.22 in10.0 miCalmClear
3:35 AM33.8 °F26.6 °F75 %30.22 in10.0 miCalmClear
3:55 AM35.6 °F26.6 °F70 %30.22 in10.0 miCalmClear
4:15 AM35.6 °F24.8 °F65 %30.22 in10.0 miCalmClear
4:35 AM33.8 °F24.8 °F70 %30.22 in10.0 miCalmClear
4:55 AM33.8 °F24.8 °F70 %30.21 in10.0 miCalmClear
5:15 AM33.8 °F24.8 °F70 %30.21 in10.0 miCalmClear
5:35 AM33.8 °F24.8 °F70 %30.21 in10.0 miCalmClear
5:55 AM32.0 °F24.8 °F75 %30.21 in10.0 miCalmClear
6:15 AM30.2 °F24.8 °F80 %30.21 in10.0 miCalmClear
6:35 AM30.2 °F24.8 °F80 %30.20 in10.0 miCalmClear
6:55 AM30.2 °F23.0 °F75 %30.20 in10.0 miCalmClear
7:15 AM30.2 °F24.8 °F80 %30.20 in10.0 miCalmClear
7:35 AM26.6 °F19.4 °F74 %30.20 in10.0 miCalmClear
7:55 AM28.4 °F21.2 °F74 %30.20 in9.0 miCalmClear
8:15 AM32.0 °F24.8 °F75 %30.21 in10.0 miCalmClear
8:35 AM33.8 °F24.8 °F70 %30.21 in10.0 miCalmClear
8:55 AM35.6 °F24.8 °F65 %30.20 in10.0 miCalmClear
9:15 AM37.4 °F26.6 °F65 %30.20 in10.0 miCalmClear
9:35 AM39.2 °F26.6 °F61 %30.20 in10.0 miCalmClear
9:55 AM42.8 °F26.6 °F53 %30.19 in10.0 miCalmClear
10:15 AM44.6 °F28.4 °F53 %30.19 in10.0 miCalmClear
10:35 AM46.4 °F26.6 °F46 %30.18 in10.0 miSouth (170°)3.5 mphClear
10:55 AM48.2 °F26.6 °F43 %30.16 in10.0 miCalmClear
11:15 AM50.0 °F26.6 °F40 %30.15 in10.0 miCalmClear
11:35 AM51.8 °F26.6 °F38 %30.14 in10.0 miNorth (360°)3.5 mphClear
11:55 AM53.6 °F28.4 °F38 %30.12 in10.0 miCalmClear
12:15 PM55.4 °F28.4 °F36 %30.11 in10.0 miNNW (330°)3.5 mphClear
12:35 PM57.2 °F28.4 °F33 %30.09 in10.0 miSSE (150°)3.5 mphClear
12:55 PM60.8 °F28.4 °F29 %30.08 in10.0 miSSE (150°)8.1 mphClear
1:15 PM62.6 °F26.6 °F26 %30.05 in10.0 miSSW (200°)15.0 mph18.4 mphClear
1:35 PM64.4 °F26.6 °F24 %30.04 in10.0 miSW (220°)9.2 mph20.7 mphClear
1:55 PM64.4 °F24.8 °F22 %30.02 in10.0 miSSW (210°)9.2 mph16.1 mphClear
2:15 PM64.4 °F24.8 °F22 %30.01 in10.0 miWest (270°)4.6 mphClear
2:35 PM64.4 °F24.8 °F22 %30.01 in10.0 miWNW (290°)6.9 mph26.5 mphPartly Cloudy
2:55 PM66.2 °F26.6 °F23 %30.00 in10.0 miWSW (240°)9.2 mph19.6 mphClear
3:15 PM64.4 °F24.8 °F22 %29.99 in10.0 miWNW (290°)8.1 mph19.6 mphClear
3:35 PM66.2 °F26.6 °F23 %29.99 in10.0 miWest (280°)12.7 mph19.6 mphClear
3:55 PM66.2 °F24.8 °F21 %29.99 in10.0 miSW (230°)15.0 mph19.6 mphClear
4:15 PM64.4 °F24.8 °F22 %29.99 in10.0 miWest (280°)15.0 mphClear
4:35 PM64.4 °F24.8 °F22 %29.99 in10.0 miSW (230°)13.8 mph21.9 mphClear
4:55 PM64.4 °F24.8 °F22 %29.98 in10.0 miSW (230°)11.5 mph18.4 mphClear
5:15 PM64.4 °F24.8 °F22 %29.99 in10.0 miWest (280°)12.7 mph20.7 mphClear
5:35 PM62.6 °F24.8 °F24 %29.99 in10.0 miWest (260°)9.2 mph16.1 mphClear
5:55 PM62.6 °F24.8 °F24 %30.00 in10.0 miWest (260°)6.9 mph17.3 mphClear
6:15 PM60.8 °F24.8 °F25 %30.00 in10.0 miWNW (290°)15.0 mphClear
6:35 PM60.8 °F24.8 °F25 %30.01 in10.0 miWNW (290°)11.5 mphPartly Cloudy
6:55 PM59.0 °F23.0 °F25 %30.01 in10.0 miWNW (290°)10.4 mphMostly Cloudy
7:15 PM57.2 °F24.8 °F29 %30.02 in10.0 miWNW (290°)8.1 mphPartly Cloudy
7:35 PM57.2 °F24.8 °F29 %30.02 in10.0 miNNW (340°)4.6 mphClear
7:55 PM50.0 °F21.2 °F32 %30.02 in10.0 miSSE (160°)4.6 mphClear
8:15 PM50.0 °F24.8 °F37 %30.03 in10.0 miCalmClear
8:35 PM51.8 °F24.8 °F35 %30.04 in10.0 miSE (130°)4.6 mphClear
8:55 PM48.2 °F24.8 °F40 %30.04 in10.0 miNorth (360°)3.5 mphClear
9:15 PM46.4 °F23.0 °F40 %30.05 in10.0 miNorth (10°)3.5 mphClear
9:35 PM46.4 °F23.0 °F40 %30.05 in10.0 miNNW (340°)8.1 mphClear
9:55 PM42.8 °F23.0 °F46 %30.05 in10.0 miNNW (330°)6.9 mphClear
10:15 PM42.8 °F24.8 °F49 %30.05 in10.0 miNorth (360°)5.8 mphClear
10:35 PM41.0 °F24.8 °F53 %30.05 in10.0 miNorth (360°)6.9 mphClear
10:55 PM39.2 °F24.8 °F56 %30.05 in10.0 miNE (40°)3.5 mphClear
11:15 PM37.4 °F24.8 °F60 %30.05 in10.0 miCalmClear
11:35 PM39.2 °F24.8 °F56 %30.05 in10.0 miNNE (30°)4.6 mphClear
11:55 PM37.4 °F23.0 °F56 %30.05 in10.0 miNE (50°)3.5 mphClear
Hourly data recorded from KGUC, located miles away from Crested Butte, Colorado







STORIES FROM OUR PARTNERS